Location: Dehesa de la Cepeda
(40.6574°N, 4.3013°W)
Time: 03:01:29
(UTC+00:00)

Courier 1B - Pass Details

Date: 02 August 2021
Orbit: 963 x 1209 km, 28.3° (Epoch: 17 September)

Event Time Altitude Azimuth Distance (km) Brightness Sun altitude
Rises 17:43:49 0° 218° (SW) 4,076 11.2 18.7°
Reaches altitude 10° 17:47:32 10° 202° (SSW) 3,130 10.4 18.0°
Maximum altitude 17:52:51 20° 159° (SSE) 2,467 9.4 17.0°
Drops below altitude 10° 17:58:09 10° 116° (ESE) 3,127 9.6 16.0°
Sets 18:01:50 0° 100° (E) 4,071 10.1 15.4°
